FW0532 Weather Reports


Display with metric or nautical units.
time (UTC)temp
F
wind
direction
speed
MPH
gust
MPH
rain 1hr
in
rain 24hr
in
rain mn
in
humidity
%
barometer
mb
20260503210316 51 302 7.0 19.0 0.00 0.00 0.00 68 1013.8
20260503205816 52 209 13.0 19.0 0.00 0.00 0.00 65 1013.8
20260503203815 57 261 5.0 17.0 0.00 0.00 0.00 47 1013.3
20260503203315 57 182 4.0 17.0 0.00 0.00 0.00 44 1013.3
20260503201814 58 236 13.0 14.0 0.00 0.00 0.00 44 1013.2
20260503201314 58 198 5.0 14.0 0.00 0.00 0.00 42 1013.4
20260503200814 59 226 2.0 14.0 0.00 0.00 0.00 41 1013.4
20260503195813 59 131 3.0 20.0 0.00 0.00 0.00 41 1013.3
20260503195314 59 183 19.0 20.0 0.00 0.00 0.00 40 1013.3
20260503194813 60 272 6.0 24.0 0.00 0.00 0.00 42 1013.2
20260503194313 60 190 7.0 24.0 0.00 0.00 0.00 41 1013.2
20260503193813 60 196 15.0 21.0 0.00 0.00 0.00 40 1013.3
20260503192812 60 206 15.0 22.0 0.00 0.00 0.00 37 1013.3
20260503192313 61 236 8.0 22.0 0.00 0.00 0.00 39 1013.5
20260503191813 61 150 5.0 19.0 0.00 0.00 0.00 38 1013.6
20260503191312 61 252 5.0 19.0 0.00 0.00 0.00 39 1013.9
20260503190813 61 223 11.0 19.0 0.00 0.00 0.00 40 1013.9
20260503185812 61 221 3.0 24.0 0.00 0.00 0.00 39 1014.2
20260503185311 61 232 10.0 24.0 0.00 0.00 0.00 37 1014.1
20260503184811 61 241 10.0 21.0 0.00 0.00 0.00 38 1014.3
20260503183812 61 170 10.0 20.0 0.00 0.00 0.00 39 1014.6
20260503183312 61 302 5.0 14.0 0.00 0.00 0.00 39 1014.6
20260503182812 61 215 3.0 22.0 0.00 0.00 0.00 41 1014.5
20260503182311 61 200 9.0 22.0 0.00 0.00 0.00 39 1014.5
20260503181810 61 209 6.0 16.0 0.00 0.00 0.00 41 1014.8
20260503181310 61 238 7.0 16.0 0.00 0.00 0.00 41 1014.7
20260503180811 61 207 7.0 16.0 0.00 0.00 0.00 42 1014.9
20260503174810 61 196 14.0 18.0 0.00 0.00 0.00 44 1015.1
20260503174309 60 240 5.0 16.0 0.00 0.00 0.00 41 1015.3
20260503173810 60 225 5.0 15.0 0.00 0.00 0.00 40 1015.4
20260503172809 60 246 14.0 17.0 0.00 0.00 0.00 42 1015.6
20260503171809 59 149 7.0 24.0 0.00 0.00 0.00 41 1015.6
20260503171309 59 178 6.0 24.0 0.00 0.00 0.00 41 1015.6
20260503170808 59 182 12.0 19.0 0.00 0.00 0.00 40 1015.6
20260503170308 59 211 4.0 14.0 0.00 0.00 0.00 41 1015.7
20260503150805 57 196 1.0 12.0 0.00 0.00 0.00 57 1016.7
20260503150304 56 172 4.0 12.0 0.00 0.00 0.00 52 1016.8
20260503140303 53 196 5.0 10.0 0.00 0.00 0.00 55 1016.6
20260503131331 49 242 3.0 12.0 0.00 0.00 0.00 62 1016.9
20260503130331 48 236 3.0 7.0 0.00 0.00 0.00 63 1016.7
20260503110827 34 173 1.0 3.0 0.00 0.00 0.00 84 1016.2
20260503110327 34 275 0.0 3.0 0.00 0.00 0.00 86 1016.1
20260503090323 33 252 0.0 0.0 0.00 0.00 0.00 90 1015.8
20260503081322 33 251 0.0 0.0 0.00 0.00 0.00 88 1015.8
20260503080321 33 251 0.0 0.0 0.00 0.00 0.00 88 1015.8
20260503072321 33 252 0.0 0.0 0.00 0.00 0.00 90 1015.9
20260503071320 33 251 0.0 0.0 0.00 0.00 0.00 90 1015.9
20260503070820 33 251 0.0 0.0 0.00 0.00 0.00 90 1015.9
20260503070320 33 251 0.0 0.0 0.00 0.00 0.00 89 1015.9
20260503060318 34 251 0.0 0.0 0.00 0.00 0.00 89 1016.4
20260503054818 33 252 0.0 0.0 0.00 0.00 0.00 90 1016.4
20260503054318 33 251 0.0 0.0 0.00 0.00 0.00 90 1016.3
20260503053817 33 252 0.0 0.0 0.00 0.00 0.00 90 1016.3
20260503053317 33 251 0.0 0.0 0.00 0.00 0.00 90 1016.3
20260503052817 33 252 0.0 0.0 0.00 0.00 0.00 90 1016.3
20260503052317 33 251 0.0 0.0 0.00 0.00 0.00 89 1016.4
20260503051817 34 252 0.0 0.0 0.00 0.00 0.00 89 1016.5
20260503051316 34 252 0.0 0.0 0.00 0.00 0.00 90 1016.5
20260503050816 33 252 0.0 0.0 0.00 0.00 0.00 90 1016.3
20260503050316 33 252 0.0 0.0 0.00 0.00 0.00 90 1016.4
20260503045316 33 251 0.0 0.0 0.00 0.00 0.00 90 1016.2
20260503044816 33 252 0.0 0.0 0.00 0.00 0.00 90 1016.2
20260503044315 33 251 0.0 0.0 0.00 0.00 0.00 90 1016.2
20260503043816 33 251 0.0 0.0 0.00 0.00 0.00 90 1016.2
20260503043315 33 252 0.0 0.0 0.00 0.00 0.00 90 1016.2
20260503042815 33 251 0.0 0.0 0.00 0.00 0.00 90 1016.2
20260503042315 33 252 0.0 0.0 0.00 0.00 0.00 89 1016.2
20260503041815 34 251 0.0 0.0 0.00 0.00 0.00 90 1016.3
20260503041314 34 251 0.0 0.0 0.00 0.00 0.00 90 1016.3
20260503040814 34 251 0.0 0.0 0.00 0.00 0.00 89 1016.3
20260503040314 34 252 0.0 0.0 0.00 0.00 0.00 89 1016.3
20260503035814 34 251 0.0 0.0 0.00 0.00 0.00 88 1016.3
20260503035314 34 252 0.0 0.0 0.00 0.00 0.00 88 1016.3
20260503034814 35 251 0.0 0.0 0.00 0.00 0.00 87 1016.3
20260503034314 35 251 0.0 0.0 0.00 0.00 0.00 86 1016.3
20260503033813 36 251 0.0 0.0 0.00 0.00 0.00 85 1016.4
20260503033313 36 251 0.0 0.0 0.00 0.00 0.00 85 1016.4
20260503032313 36 252 0.0 0.0 0.00 0.00 0.00 84 1016.4
20260503031813 37 252 0.0 1.0 0.00 0.00 0.00 83 1016.4
20260503030312 36 273 0.0 0.0 0.00 0.00 0.00 85 1016.4
20260503025812 36 321 0.0 0.0 0.00 0.00 0.00 85 1016.2
20260503025312 36 321 0.0 0.0 0.00 0.00 0.00 85 1016.2
20260503024312 36 321 0.0 0.0 0.00 0.00 0.00 85 1016.2
20260503023812 36 321 0.0 0.0 0.00 0.00 0.00 84 1016.2
20260503022811 36 321 0.0 0.0 0.00 0.00 0.00 84 1016.3
20260503022311 36 321 0.0 0.0 0.00 0.00 0.00 83 1016.3
20260503021811 36 321 0.0 0.0 0.00 0.00 0.00 82 1016.3
20260503021311 36 321 0.0 0.0 0.00 0.00 0.00 84 1016.3
20260503020811 37 321 0.0 0.0 0.00 0.00 0.00 83 1016.2
20260503020310 37 321 0.0 0.0 0.00 0.00 0.00 82 1016.2
20260503015810 37 321 0.0 0.0 0.00 0.00 0.00 82 1016.3
20260503015310 37 321 0.0 0.0 0.00 0.00 0.00 82 1016.2
20260503014810 37 321 0.0 1.0 0.00 0.00 0.00 80 1016.2
20260503014310 38 321 0.0 1.0 0.00 0.00 0.00 80 1016.2
20260503013810 38 321 0.0 0.0 0.00 0.00 0.00 78 1016.1
20260503013310 38 321 0.0 0.0 0.00 0.00 0.00 76 1016.1
20260503012310 38 321 0.0 0.0 0.00 0.00 0.00 74 1016.0
20260503011809 38 321 0.0 0.0 0.00 0.00 0.00 74 1016.0
20260503011309 39 321 0.0 0.0 0.00 0.00 0.00 73 1016.0
20260503010809 39 321 0.0 0.0 0.00 0.00 0.00 73 1016.1
20260503010309 39 321 0.0 0.0 0.00 0.00 0.00 72 1016.0
20260503005808 39 321 0.0 0.0 0.00 0.00 0.00 72 1015.9
20260503005309 40 321 0.0 0.0 0.00 0.00 0.00 73 1015.9
20260503004808 40 321 0.0 1.0 0.00 0.00 0.00 69 1015.9
20260503004308 40 321 0.0 2.0 0.00 0.00 0.00 69 1015.9
20260503003808 41 321 0.0 2.0 0.00 0.00 0.00 70 1015.9
20260503003308 41 321 0.0 0.0 0.00 0.00 0.00 68 1015.9
20260503002808 42 321 0.0 0.0 0.00 0.00 0.00 67 1015.9
20260503002308 43 321 0.0 0.0 0.00 0.00 0.00 65 1016.0
20260503001807 44 321 0.0 4.0 0.00 0.00 0.00 62 1016.0
20260503001308 45 321 0.0 4.0 0.00 0.00 0.00 60 1016.0
20260503000307 46 343 1.0 5.0 0.00 0.00 0.00 53 1016.1
20260502235807 46 11 0.0 7.0 0.00 0.00 0.00 52 1015.9
20260502235307 46 340 4.0 12.0 0.00 0.00 0.00 52 1015.9
20260502234806 47 336 1.0 12.0 0.00 0.00 0.00 51 1016.0
20260502234306 47 13 2.0 7.0 0.00 0.00 0.00 53 1016.0
20260502233806 48 360 2.0 7.0 0.00 0.00 0.00 49 1015.9
20260502233306 48 5 6.0 10.0 0.00 0.00 0.00 49 1015.9
20260502232805 48 350 1.0 10.0 0.00 0.00 0.00 50 1015.9
20260502231806 47 30 0.0 9.0 0.00 0.00 0.00 51 1016.0
20260502230805 47 329 0.0 10.0 0.00 0.00 0.00 52 1016.1
20260502230305 47 28 5.0 10.0 0.00 0.00 0.00 51 1016.1
20260502225805 48 227 3.0 10.0 0.00 0.00 0.00 52 1015.9
20260502225305 48 349 3.0 10.0 0.00 0.00 0.00 52 1015.9
20260502224804 48 346 3.0 10.0 0.00 0.00 0.00 54 1016.0
20260502224305 48 13 4.0 10.0 0.00 0.00 0.00 51 1015.9
20260502223304 48 345 5.0 9.0 0.00 0.00 0.00 50 1015.9
20260502222804 48 324 2.0 7.0 0.00 0.00 0.00 50 1015.9
20260502222305 48 223 1.0 10.0 0.00 0.00 0.00 54 1015.9
20260502221804 48 360 4.0 11.0 0.00 0.00 0.00 51 1015.7
20260502221303 48 326 2.0 11.0 0.00 0.00 0.00 51 1015.8
20260502220803 48 324 5.0 11.0 0.00 0.00 0.00 51 1015.8
20260502215803 48 5 0.0 11.0 0.00 0.00 0.00 54 1015.7
20260502215304 48 327 3.0 11.0 0.00 0.00 0.00 53 1015.8
20260502214803 48 306 7.0 11.0 0.00 0.00 0.00 55 1015.7
20260502214303 48 350 6.0 11.0 0.00 0.00 0.00 53 1015.7
20260502213802 48 13 1.0 10.0 0.00 0.00 0.00 52 1015.6
20260502213302 49 342 2.0 9.0 0.00 0.00 0.00 51 1015.7
20260502212832 48 9 4.0 12.0 0.00 0.00 0.00 52 1015.6
20260502212332 48 313 2.0 12.0 0.00 0.00 0.00 48 1015.5
20260502211832 48 323 0.0 9.0 0.00 0.00 0.00 49 1015.4
20260502211332 48 341 1.0 12.0 0.00 0.00 0.00 51 1015.4
20260502210831 48 349 5.0 14.0 0.00 0.00 0.00 49 1015.4